Location: Anglesey
(53.1800°N, 4.2200°W)
Time: 15:49:08

Tiangong 2 - Visible Passes

Search period start: 20 March 2018 00:00
Search period end: 30 March 2018 01:00
Orbit: 383 x 388 km, 42.8° (Epoch: 20 March)

Date Brightness Start Highest point End Pass type
(mag) Time Alt. Az. Time Alt. Az. Time Alt. Az.
20 Mar 3.8 04:11:33 11° SSE 04:11:33 11° SSE 04:12:00 10° SE visible
20 Mar 3.6 05:45:24 10° SSW 05:46:25 11° SSW 05:47:25 10° S visible
21 Mar 3.4 04:47:16 13° S 04:47:29 13° S 04:48:57 10° SSE visible
